sat.trackr.live / text

‹ back to catalog

STARLINK-35808

NORAD 68052 · 2026-041N

PAYLOAD ACTIVE UNKNOWN

§ Identity

Operator
Country
US
Launch date
2026-03-02
Launch site
AFETR
Launch vehicle
Mass (kg)
RCS (m²)

Purposes: comms

External: N2YO · Heavens-Above · Gunter

§ Orbital elements

Epoch: 2026-05-25T00:20:34.482336Z

Period
93.85 min
Inclination
53.1591°
Eccentricity
0.0000536
Mean motion
15.34408293 rev/d
Perigee alt
462.3 km
Apogee alt
463.0 km
Semi-major
6,840.8 km
B*
5.2853e-4
RAAN
55.3793°
Arg perigee
56.7858°
Mean anomaly
303.3196°
Rev number
1,307

§ Raw data

STARLINK-358081 68052U 26041N   26145.01428799  .00017528  00000+0  52853-3 0  99902 68052  53.1591  55.3793 0000536  56.7858 303.3196 15.34408293 13077

JSON: /api/v1/satellites/68052 · /tle

For live sub-satellite position, see the globe view (requires WebGL).

§ Visibility from observer

Set your observer location to see the next 7 days of passes ≥ 10°. The values pass through the URL so the page stays shareable.

No JS? Fill the form by hand. The geolocation button needs JavaScript.